Location: Hilton Head Island
(32.2163°N, 80.7526°W)
Time: 22:55:33
(UTC-04:00)

Vanguard 2 Rocket - Pass Details

Date: 22 February 2026
Orbit: 553 x 3286 km, 32.9° (Epoch: 13 March)

Event Time Altitude Azimuth Distance (km) Brightness Sun altitude
Rises 17:15:28 0° 286° (WNW) 6,571 12.2 11.3°
Reaches altitude 10° 17:20:34 10° 282° (WNW) 5,171 11.9 10.3°
Maximum altitude 17:33:29 49° 214° (SW) 2,049 9.3 7.7°
Drops below altitude 10° 17:40:56 10° 141° (SE) 3,047 9.4 6.2°
Sets 17:43:12 0° 135° (SE) 3,744 9.8 5.7°
